When you browse on this site, cookies collect data to enhance your experience and personalize the content and advertising you see.
Visit our Privacy Policy to learn more. By continuing to use the site, you agree to this use of cookies and data.
  • In United Kingdom
  • List of Countries
  • For 7 days
  • Water Temperature
  • Satellite Maps
  • Weather Map
  • Weather Widgets
  • user-avatar
    Login

    Hourly Weather Yangikishlak

    Today, 21 March, Thursday

    Time Temperature Precipitation Wind Pressure Humidity
    00:00 +8°C° 1.2 mm 2 mps 687 mmHg 77%
    01:00 +7°C° 1.2 mm 2 mps 687 mmHg 79%
    02:00 +8°C° 0.7 mm 1 mps 687 mmHg 79%
    03:00 +8°C° 0.7 mm 1 mps 687 mmHg 79%
    04:00 +8°C° 0 mm 1 mps 687 mmHg 79%
    05:00 +8°C° 0.1 mm 1 mps 687 mmHg 76%
    06:00 +8°C° 0.1 mm 1 mps 688 mmHg 73%
    07:00 +9°C° 0.1 mm 1 mps 688 mmHg 70%
    08:00 +10°C° 0 mm 1 mps 688 mmHg 64%
    09:00 +11°C° 0 mm 1 mps 688 mmHg 59%
    10:00 +12°C° 0 mm 2 mps 689 mmHg 54%
    11:00 +13°C° 0 mm 2 mps 688 mmHg 51%
    12:00 +14°C° 0 mm 2 mps 688 mmHg 48%
    13:00 +14°C° 0 mm 2 mps 688 mmHg 46%
    14:00 +14°C° 0.2 mm 2 mps 688 mmHg 46%
    15:00 +14°C° 0.2 mm 2 mps 688 mmHg 46%
    16:00 +14°C° 0.2 mm 2 mps 688 mmHg 46%
    17:00 +13°C° 0.1 mm 2 mps 688 mmHg 50%
    18:00 +13°C° 0.1 mm 1 mps 688 mmHg 53%
    19:00 +12°C° 0.1 mm 1 mps 688 mmHg 57%
    20:00 +11°C° 0.1 mm 1 mps 688 mmHg 60%
    21:00 +11°C° 0.1 mm 1 mps 688 mmHg 63%
    22:00 +10°C° 0.1 mm 1 mps 688 mmHg 65%
    23:00 +10°C° 0 mm 1 mps 688 mmHg 66%

    Tomorrow, 22 March, Friday

    Time Temperature Precipitation Wind Pressure Humidity
    00:00 +10°C° 0 mm 1 mps 688 mmHg 67%
    01:00 +10°C° 0 mm 1 mps 687 mmHg 68%
    02:00 +10°C° 0 mm 1 mps 687 mmHg 70%
    03:00 +10°C° 0 mm 1 mps 687 mmHg 72%
    04:00 +10°C° 0 mm 1 mps 687 mmHg 73%
    05:00 +10°C° 0.1 mm 1 mps 687 mmHg 73%
    06:00 +10°C° 0.1 mm 1 mps 687 mmHg 72%
    07:00 +11°C° 0.1 mm 1 mps 687 mmHg 72%
    08:00 +12°C° 0.2 mm 1 mps 687 mmHg 66%
    09:00 +13°C° 0.2 mm 1 mps 687 mmHg 60%
    10:00 +13°C° 0.2 mm 1 mps 687 mmHg 54%
    11:00 +14°C° 0.3 mm 2 mps 687 mmHg 53%
    12:00 +14°C° 0.3 mm 2 mps 687 mmHg 51%
    13:00 +15°C° 0.3 mm 2 mps 687 mmHg 50%
    14:00 +15°C° 0.4 mm 2 mps 686 mmHg 50%
    15:00 +15°C° 0.4 mm 2 mps 686 mmHg 51%
    16:00 +15°C° 0.4 mm 2 mps 686 mmHg 51%
    17:00 +14°C° 0.2 mm 2 mps 686 mmHg 58%
    18:00 +13°C° 0.2 mm 2 mps 686 mmHg 65%
    19:00 +12°C° 0.2 mm 2 mps 686 mmHg 71%
    20:00 +12°C° 0.2 mm 2 mps 686 mmHg 74%
    21:00 +11°C° 0.2 mm 1 mps 686 mmHg 77%
    22:00 +11°C° 0.2 mm 1 mps 686 mmHg 80%
    23:00 +10°C° 0.1 mm 1 mps 686 mmHg 81%

    Day after tomorrow, 23 March, Saturday

    Time Temperature Precipitation Wind Pressure Humidity
    00:00 +10°C° 0.1 mm 1 mps 686 mmHg 82%
    01:00 +10°C° 0.1 mm 1 mps 685 mmHg 84%
    02:00 +10°C° 0.1 mm 1 mps 685 mmHg 85%
    03:00 +10°C° 0.1 mm 1 mps 685 mmHg 86%
    04:00 +9°C° 0.1 mm 1 mps 685 mmHg 88%
    05:00 +9°C° 0.6 mm 1 mps 686 mmHg 88%
    06:00 +10°C° 0.6 mm 1 mps 686 mmHg 87%
    07:00 +10°C° 0.6 mm 1 mps 686 mmHg 87%
    08:00 +10°C° 0.6 mm 2 mps 686 mmHg 80%
    09:00 +12°C° 0.6 mm 2 mps 686 mmHg 74%
    10:00 +13°C° 0.6 mm 2 mps 687 mmHg 67%
    11:00 +11°C° 1 mm 3 mps 686 mmHg 69%
    12:00 +11°C° 1 mm 4 mps 686 mmHg 72%
    13:00 +9°C° 1 mm 5 mps 686 mmHg 75%
    14:00 +10°C° 0.6 mm 4 mps 686 mmHg 75%
    15:00 +10°C° 0.6 mm 4 mps 686 mmHg 74%
    16:00 +10°C° 0.6 mm 4 mps 686 mmHg 74%
    17:00 +9°C° 0.1 mm 3 mps 687 mmHg 76%
    18:00 +9°C° 0.1 mm 2 mps 687 mmHg 78%
    19:00 +9°C° 0.1 mm 1 mps 687 mmHg 79%
    20:00 +9°C° 0 mm 1 mps 687 mmHg 80%
    21:00 +8°C° 0 mm 1 mps 687 mmHg 80%
    22:00 +8°C° 0 mm 1 mps 687 mmHg 80%
    23:00 +8°C° 0 mm 1 mps 687 mmHg 80%

    24 March, Sunday

    Time Temperature Precipitation Wind Pressure Humidity
    00:00 +7°C° 0 mm 1 mps 687 mmHg 79%
    01:00 +7°C° 0 mm 1 mps 687 mmHg 79%
    02:00 +7°C° 0 mm 1 mps 687 mmHg 78%
    03:00 +6°C° 0 mm 0 mps 687 mmHg 78%
    04:00 +5°C° 0 mm 0 mps 687 mmHg 77%
    05:00 +7°C° 0 mm 1 mps 687 mmHg 74%
    06:00 +8°C° 0 mm 1 mps 687 mmHg 72%
    07:00 +9°C° 0 mm 1 mps 688 mmHg 69%
    08:00 +10°C° 0 mm 2 mps 688 mmHg 62%
    09:00 +12°C° 0 mm 2 mps 688 mmHg 55%
    10:00 +14°C° 0 mm 2 mps 688 mmHg 48%
    11:00 +14°C° 0 mm 2 mps 688 mmHg 43%
    12:00 +15°C° 0 mm 2 mps 687 mmHg 39%
    13:00 +16°C° 0 mm 2 mps 687 mmHg 35%
    14:00 +16°C° 0 mm 2 mps 687 mmHg 35%
    15:00 +16°C° 0 mm 2 mps 686 mmHg 35%
    16:00 +16°C° 0 mm 2 mps 686 mmHg 36%
    17:00 +15°C° 0 mm 2 mps 686 mmHg 43%
    18:00 +13°C° 0 mm 3 mps 686 mmHg 49%
    19:00 +11°C° 0 mm 3 mps 686 mmHg 56%
    20:00 +11°C° 0 mm 3 mps 685 mmHg 58%
    21:00 +10°C° 0 mm 3 mps 685 mmHg 59%
    22:00 +10°C° 0 mm 3 mps 685 mmHg 61%
    23:00 +10°C° 0 mm 2 mps 685 mmHg 62%

    25 March, Monday

    Time Temperature Precipitation Wind Pressure Humidity
    00:00 +9°C° 0 mm 2 mps 685 mmHg 63%
    01:00 +9°C° 0 mm 2 mps 684 mmHg 64%
    02:00 +9°C° 0 mm 2 mps 684 mmHg 64%
    03:00 +9°C° 0 mm 2 mps 684 mmHg 64%
    04:00 +8°C° 0 mm 2 mps 684 mmHg 64%
    05:00 +9°C° 0 mm 2 mps 684 mmHg 60%
    06:00 +10°C° 0 mm 2 mps 684 mmHg 57%
    07:00 +12°C° 0 mm 2 mps 684 mmHg 53%
    08:00 +14°C° 0 mm 2 mps 684 mmHg 46%
    09:00 +16°C° 0 mm 3 mps 684 mmHg 39%
    10:00 +18°C° 0 mm 3 mps 684 mmHg 32%
    11:00 +18°C° 0 mm 4 mps 684 mmHg 30%
    12:00 +19°C° 0 mm 4 mps 683 mmHg 28%
    13:00 +20°C° 0 mm 4 mps 683 mmHg 26%
    14:00 +20°C° 0 mm 4 mps 683 mmHg 27%
    15:00 +20°C° 0 mm 4 mps 683 mmHg 29%
    16:00 +19°C° 0 mm 4 mps 683 mmHg 30%
    17:00 +18°C° 0 mm 4 mps 683 mmHg 32%
    18:00 +17°C° 0 mm 3 mps 683 mmHg 35%
    19:00 +16°C° 0 mm 3 mps 683 mmHg 37%
    20:00 +15°C° 0 mm 2 mps 683 mmHg 36%
    21:00 +15°C° 0 mm 2 mps 683 mmHg 36%
    22:00 +15°C° 0 mm 1 mps 683 mmHg 36%
    23:00 +15°C° 0 mm 2 mps 683 mmHg 37%

    26 March, Tuesday

    Time Temperature Precipitation Wind Pressure Humidity
    00:00 +15°C° 0 mm 2 mps 684 mmHg 38%
    01:00 +14°C° 0 mm 3 mps 684 mmHg 39%
    02:00 +13°C° 0.1 mm 4 mps 684 mmHg 48%
    03:00 +12°C° 0.1 mm 5 mps 684 mmHg 57%
    04:00 +10°C° 0.1 mm 5 mps 684 mmHg 67%
    05:00 +10°C° 0 mm 6 mps 685 mmHg 71%
    06:00 +10°C° 0 mm 7 mps 685 mmHg 74%
    07:00 +10°C° 0 mm 8 mps 685 mmHg 78%
    08:00 +12°C° 0 mm 8 mps 686 mmHg 68%
    09:00 +15°C° 0 mm 7 mps 686 mmHg 58%
    10:00 +17°C° 0 mm 7 mps 687 mmHg 49%
    11:00 +19°C° 0 mm 6 mps 687 mmHg 44%
    12:00 +21°C° 0 mm 6 mps 687 mmHg 40%
    13:00 +23°C° 0 mm 5 mps 687 mmHg 36%
    14:00 +22°C° 0 mm 4 mps 686 mmHg 36%
    15:00 +22°C° 0 mm 4 mps 686 mmHg 36%
    16:00 +22°C° 0 mm 3 mps 685 mmHg 36%
    17:00 +21°C° 0 mm 3 mps 685 mmHg 38%
    18:00 +19°C° 0 mm 3 mps 685 mmHg 39%
    19:00 +18°C° 0 mm 3 mps 685 mmHg 41%
    20:00 +18°C° 0 mm 2 mps 685 mmHg 38%
    21:00 +17°C° 0 mm 2 mps 685 mmHg 35%
    22:00 +18°C° 0 mm 1 mps 685 mmHg 32%
    23:00 +18°C° 0.1 mm 1 mps 684 mmHg 34%
    Show more